GW0385 Weather Reports


time (UTC)temp
C
wind
direction
speed
KPH
gust
KPH
rain 1hr
cm
rain 24hr
cm
rain mn
cm
humidity
%
barometer
mb
20260506231539 7 333 4.8 11.3 0.03 1.91 1.91 93 1008.2
20260506231505 7 353 6.4 9.7 0.05 1.88 1.91 93 1008.1
20260506231022 7 21 4.8 14.5 0.05 1.91 1.91 92 1008.1
20260506231003 7 45 4.8 9.7 0.05 1.88 1.91 93 1007.9
20260506230521 7 4 3.2 14.5 0.05 1.91 1.91 92 1008.1
20260506230503 7 332 4.8 14.5 0.05 1.88 1.91 93 1007.9
20260506230037 7 351 8.0 14.5 0.05 1.91 1.91 92 1007.9
20260506230003 7 12 8.0 14.5 0.03 1.85 1.88 93 1007.8
20260506225522 7 356 8.0 16.1 0.03 1.88 1.88 92 1008.0
20260506225503 7 31 8.0 16.1 0.03 1.85 1.88 93 1007.9
20260506225019 7 356 6.4 17.7 0.03 1.88 1.88 92 1008.0
20260506225003 7 351 8.0 17.7 0.03 1.85 1.88 93 1008.0
20260506224537 7 10 12.9 19.3 0.03 1.88 1.88 92 1008.1
20260506224503 7 14 12.9 19.3 0.03 1.85 1.88 93 1007.9
20260506224022 7 26 16.1 19.3 0.03 1.88 1.88 92 1008.0
20260506223518 7 21 16.1 20.9 0.03 1.88 1.88 93 1008.0
20260506223504 7 18 16.1 20.9 0.03 1.85 1.88 93 1007.9
20260506223036 7 31 17.7 20.9 0.03 1.88 1.88 93 1007.9
20260506223004 7 18 17.7 20.9 0.03 1.85 1.88 93 1007.8
20260506222522 7 21 16.1 22.5 0.03 1.88 1.88 93 1007.9
20260506222505 7 14 19.3 20.9 0.03 1.85 1.88 93 1007.8
20260506222023 7 9 16.1 22.5 0.03 1.88 1.88 93 1007.9
20260506222004 7 15 17.7 20.9 0.03 1.85 1.88 94 1007.9
20260506221539 7 26 17.7 24.1 0.03 1.88 1.88 93 1007.9
20260506221505 7 21 17.7 22.5 0.00 1.85 1.85 94 1007.8
20260506221022 7 17 19.3 24.1 0.00 1.85 1.85 93 1007.9
20260506221006 7 7 20.9 24.1 0.00 1.85 1.85 94 1007.8
20260506220522 7 26 20.9 24.1 0.00 1.85 1.85 93 1007.9
20260506220044 7 21 17.7 22.5 0.00 1.85 1.85 93 1007.9
20260506215522 7 35 17.7 20.9 0.00 1.85 1.85 94 1008.0
20260506215505 7 37 17.7 20.9 0.00 1.85 1.85 94 1007.7
20260506215022 7 21 12.9 20.9 0.00 1.85 1.85 94 1008.1
20260506215006 7 21 14.5 19.3 0.00 1.85 1.85 94 1008.1
20260506214538 7 21 16.1 20.9 0.00 1.85 1.85 93 1008.2
20260506214504 7 13 17.7 19.3 0.00 1.85 1.85 94 1008.1
20260506214022 7 21 16.1 22.5 0.00 1.85 1.85 93 1008.2
20260506214005 7 21 17.7 20.9 0.00 1.85 1.85 94 1008.0
20260506213521 7 17 16.1 22.5 0.00 1.85 1.85 93 1008.0
20260506213036 7 31 17.7 22.5 0.03 1.85 1.85 93 1007.8
20260506213005 7 26 17.7 22.5 0.03 1.85 1.85 94 1007.7
20260506212525 7 18 17.7 24.1 0.03 1.85 1.85 93 1007.8
20260506212504 7 21 19.3 24.1 0.03 1.85 1.85 94 1007.7
20260506212023 6 26 19.3 24.1 0.03 1.85 1.85 93 1007.7
20260506212005 7 31 20.9 24.1 0.03 1.85 1.85 94 1007.6
20260506211538 7 15 19.3 24.1 0.05 1.85 1.85 93 1007.6
20260506211505 7 21 20.9 22.5 0.05 1.85 1.85 94 1007.5
20260506211023 6 21 17.7 24.1 0.05 1.85 1.85 93 1007.7
20260506211005 7 21 19.3 24.1 0.05 1.85 1.85 94 1007.6
20260506210525 7 16 20.9 25.7 0.05 1.85 1.85 93 1007.6
20260506210504 7 21 20.9 25.7 0.05 1.85 1.85 94 1007.5
20260506210036 6 21 20.9 25.7 0.05 1.85 1.85 93 1007.5
20260506210005 7 21 22.5 25.7 0.05 1.80 1.85 94 1007.4
20260506205522 6 26 20.9 25.7 0.05 2.24 1.85 93 1007.4
20260506205506 7 26 22.5 25.7 0.05 1.80 1.85 94 1007.3
20260506205022 6 21 22.5 25.7 0.05 2.24 1.85 93 1007.4
20260506204538 6 26 22.5 25.7 0.05 2.24 1.85 93 1007.5
20260506204506 7 26 22.5 25.7 0.05 1.80 1.85 94 1007.4
20260506204025 6 26 20.9 24.1 0.08 2.24 1.85 93 1007.5
20260506203522 7 21 20.9 24.1 0.08 2.24 1.85 93 1007.5
20260506203505 7 21 20.9 24.1 0.08 1.80 1.85 93 1007.4
20260506203108 7 26 19.3 24.1 0.05 2.21 1.83 93 1007.4
20260506202523 7 18 17.7 24.1 0.05 2.21 1.83 93 1007.4
20260506202503 7 14 17.7 24.1 0.05 1.85 1.83 94 1007.4
20260506202022 7 21 19.3 22.5 0.05 2.21 1.83 93 1007.4
20260506202002 7 18 19.3 22.5 0.05 1.85 1.83 93 1007.4
20260506201536 7 21 16.1 20.9 0.03 2.18 1.80 93 1007.5
20260506201502 7 21 17.7 20.9 0.03 2.01 1.80 93 1007.4
20260506201022 7 16 17.7 20.9 0.03 2.18 1.80 93 1007.6
20260506201002 7 21 19.3 20.9 0.03 2.18 1.80 93 1007.5
20260506200522 7 11 16.1 20.9 0.03 2.18 1.80 93 1007.5
20260506200045 6 26 14.5 22.5 0.05 2.18 1.80 93 1007.4
20260506200003 7 16 16.1 20.9 0.05 2.13 1.80 93 1007.5
20260506195522 6 14 17.7 22.5 0.08 2.18 1.80 92 1007.5
20260506195502 7 13 17.7 22.5 0.08 2.13 1.80 93 1007.4
20260506195022 6 21 16.1 22.5 0.08 2.18 1.80 92 1007.6
20260506194535 6 357 14.5 19.3 0.10 2.18 1.80 92 1007.6
20260506194505 7 9 16.1 19.3 0.10 2.13 1.78 93 1007.5
20260506194021 6 15 16.1 19.3 0.08 2.16 1.78 92 1007.6
20260506194005 7 21 17.7 19.3 0.10 2.13 1.78 93 1007.6
20260506193521 6 21 14.5 20.9 0.10 2.16 1.78 92 1007.6
20260506193505 7 14 14.5 19.3 0.10 2.13 1.78 93 1007.5
20260506193039 6 16 17.7 22.5 0.10 2.16 1.78 92 1007.7
20260506193005 7 16 17.7 22.5 0.10 2.13 1.78 93 1007.6
20260506192521 6 26 17.7 22.5 0.10 2.16 1.78 92 1007.6
20260506192505 7 26 19.3 22.5 0.10 2.13 1.78 93 1007.5
20260506192018 6 26 17.7 22.5 0.13 2.16 1.78 92 1007.5
20260506191538 6 16 19.3 20.9 0.13 2.16 1.78 92 1007.6
20260506191504 6 18 19.3 20.9 0.13 2.13 1.78 93 1007.5
20260506191022 6 21 19.3 20.9 0.15 2.16 1.78 92 1007.6
20260506191004 7 31 19.3 20.9 0.15 2.13 1.78 93 1007.6
20260506190521 6 21 17.7 20.9 0.15 2.16 1.78 92 1007.6
20260506190505 7 21 19.3 20.9 0.15 2.13 1.78 93 1007.5
20260506190046 6 31 17.7 20.9 0.13 2.13 1.75 92 1007.6
20260506190005 7 26 19.3 20.9 0.13 2.01 1.75 93 1007.6
20260506185522 6 21 17.7 20.9 0.10 2.11 1.73 92 1007.7
20260506185023 6 21 17.7 20.9 0.13 2.11 1.73 92 1007.7
20260506185006 7 21 17.7 20.9 0.13 2.01 1.73 93 1007.6
20260506184543 6 18 16.1 22.5 0.10 2.08 1.70 92 1007.7
20260506184023 6 26 17.7 22.5 0.10 2.08 1.70 92 1007.8
20260506183519 6 11 17.7 22.5 0.10 2.06 1.68 92 1007.7
20260506183032 6 21 17.7 22.5 0.10 2.06 1.68 92 1007.7
20260506183006 7 16 17.7 22.5 0.13 2.01 1.68 93 1007.6
20260506182521 6 353 11.3 22.5 0.13 2.06 1.68 92 1007.9
20260506182505 6 13 11.3 22.5 0.13 2.01 1.68 93 1007.8
20260506182026 6 2 16.1 22.5 0.13 2.03 1.65 92 1007.9
20260506182005 6 2 16.1 22.5 0.13 2.01 1.65 92 1007.8
20260506181539 6 12 16.1 24.1 0.15 2.03 1.65 92 1007.8
20260506181504 7 16 17.7 22.5 0.15 2.01 1.65 93 1007.7
20260506181023 6 21 17.7 24.1 0.15 2.01 1.63 92 1007.8
20260506181004 6 10 19.3 24.1 0.15 2.01 1.63 93 1007.7
20260506180523 6 353 16.1 24.1 0.20 2.01 1.63 92 1008.1
20260506180040 6 9 14.5 20.9 0.23 2.01 1.63 92 1008.1
20260506180006 6 16 16.1 20.9 0.23 1.78 1.63 93 1008.0
20260506175524 6 10 14.5 22.5 0.25 2.01 1.63 92 1008.0
20260506175505 6 9 14.5 22.5 0.28 1.78 1.63 93 1007.9
20260506175022 6 341 14.5 22.5 0.25 1.98 1.60 92 1008.1
20260506175004 6 26 16.1 22.5 0.28 1.78 1.60 93 1008.0
20260506174538 6 322 14.5 22.5 0.30 1.98 1.60 92 1008.2
20260506174505 6 353 17.7 22.5 0.30 1.78 1.60 93 1008.1
20260506174022 6 1 14.5 22.5 0.28 1.96 1.57 92 1008.2
20260506174003 6 341 16.1 22.5 0.28 1.78 1.57 93 1008.0
20260506173523 6 21 16.1 22.5 0.30 1.96 1.57 92 1008.3
20260506173047 6 4 14.5 22.5 0.28 1.93 1.55 92 1008.5
20260506173003 6 2 16.1 22.5 0.28 1.78 1.55 93 1008.3
20260506172521 6 347 16.1 22.5 0.30 1.93 1.55 92 1008.5
20260506172022 6 13 14.5 22.5 0.28 1.91 1.52 92 1008.5
20260506172002 6 14 16.1 22.5 0.28 1.78 1.52 93 1008.2
20260506171538 6 4 17.7 24.1 0.28 1.88 1.47 92 1008.4
20260506171501 6 6 17.7 22.5 0.28 1.78 1.50 93 1008.4
20260506171023 6 21 17.7 24.1 0.25 1.85 1.47 92 1008.4
20260506171002 6 10 17.7 24.1 0.28 1.78 1.45 93 1008.3
20260506170526 6 14 16.1 24.1 0.23 1.80 1.42 92 1008.5
20260506170502 6 21 17.7 24.1 0.23 1.78 1.42 93 1008.4
20260506170041 6 18 16.1 20.9 0.20 1.78 1.40 92 1008.5
20260506170002 6 349 17.7 20.9 0.23 1.55 1.37 92 1008.4
20260506165522 6 347 12.9 25.7 0.18 1.73 1.32 92 1008.4
20260506165022 6 359 14.5 25.7 0.18 1.70 1.32 92 1008.5
20260506165005 6 0 17.7 24.1 0.18 1.55 1.32 92 1008.3
20260506164536 6 13 19.3 25.7 0.15 1.68 1.30 92 1008.4
20260506164505 6 21 19.3 24.1 0.18 1.55 1.30 92 1008.3
20260506164022 6 355 19.3 24.1 0.18 1.68 1.30 92 1008.7
20260506163522 6 13 19.3 24.1 0.18 1.65 1.27 92 1008.5
20260506163501 6 16 20.9 24.1 0.20 1.55 1.27 92 1008.3
20260506163054 6 2 14.5 25.7 0.23 1.65 1.27 92 1008.6
20260506162523 6 2 17.7 25.7 0.20 1.63 1.24 92 1008.7
20260506162502 6 6 19.3 25.7 0.23 1.55 1.24 92 1008.5
20260506162023 6 6 14.5 25.7 0.25 1.63 1.24 92 1008.7
20260506162002 6 12 14.5 25.7 0.25 1.55 1.22 92 1008.6
20260506161539 6 21 22.5 25.7 0.25 1.60 1.22 92 1008.7
20260506161503 7 21 22.5 25.7 0.25 1.55 1.22 92 1008.6
20260506161022 6 5 17.7 25.7 0.25 1.57 1.19 92 1008.7
20260506161003 7 16 19.3 25.7 0.25 1.55 1.19 92 1008.5
20260506160522 6 8 20.9 25.7 0.28 1.57 1.19 92 1008.6
20260506160502 7 21 24.1 25.7 0.28 1.55 1.19 92 1008.5
20260506160037 7 16 19.3 24.1 0.30 1.57 1.19 92 1008.8
20260506155519 7 18 17.7 20.9 0.30 1.55 1.17 92 1008.8
20260506155506 7 21 19.3 20.9 0.30 1.27 1.17 92 1008.7
20260506155022 7 18 16.1 19.3 0.30 1.52 1.14 92 1008.8
20260506155004 7 26 16.1 19.3 0.30 1.27 1.14 92 1008.7
20260506154543 7 16 16.1 19.3 0.30 1.47 1.12 91 1008.9
20260506154019 7 12 11.3 17.7 0.33 1.47 1.12 91 1008.9
20260506154004 7 21 11.3 17.7 0.30 1.27 1.09 92 1008.8
20260506153519 7 8 12.9 17.7 0.30 1.45 1.07 91 1008.9
20260506153504 7 11 12.9 17.7 0.30 1.27 1.07 92 1008.8
20260506153034 7 352 11.3 16.1 0.30 1.42 1.04 91 1009.1
20260506153005 7 3 12.9 16.1 0.30 1.27 1.04 91 1008.9
20260506152518 7 15 11.3 16.1 0.28 1.40 1.02 91 1009.1
20260506152506 7 14 12.9 16.1 0.28 1.27 1.02 91 1009.0
20260506152019 7 21 12.9 16.1 0.28 1.37 0.99 90 1009.0
20260506152006 7 21 12.9 16.1 0.28 1.27 0.99 91 1008.9
20260506151540 7 21 11.3 14.5 0.25 1.32 0.97 90 1009.0
20260506151506 7 18 11.3 14.5 0.25 1.27 0.97 90 1008.9
20260506151018 7 6 9.7 14.5 0.25 1.32 0.94 90 1009.0
20260506151005 7 0 9.7 14.5 0.25 1.27 0.91 90 1008.9
20260506150522 7 14 6.4 14.5 0.25 1.30 0.91 90 1008.9
20260506150503 7 4 6.4 14.5 0.25 1.27 0.89 90 1008.9
20260506150038 7 7 9.7 14.5 0.23 1.27 0.89 90 1009.0
20260506145522 7 21 8.0 16.1 0.23 1.24 0.86 89 1008.7
20260506145503 7 16 8.0 14.5 0.23 1.04 0.84 90 1008.7
20260506145023 7 6 11.3 16.1 0.20 1.22 0.84 89 1008.9
20260506145001 7 18 11.3 14.5 0.20 1.04 0.84 90 1008.8
20260506144538 7 12 11.3 16.1 0.20 1.19 0.81 89 1008.9
20260506144503 7 14 12.9 14.5 0.20 1.04 0.81 90 1008.8
20260506144022 7 21 8.0 12.9 0.18 1.17 0.79 89 1008.8
20260506144003 7 11 8.0 12.9 0.18 1.04 0.79 89 1008.5
20260506143522 7 31 4.8 8.0 0.18 1.14 0.76 89 1008.8
20260506143502 7 31 4.8 8.0 0.18 1.04 0.76 89 1008.6
20260506143036 7 26 4.8 8.0 0.15 1.12 0.74 89 1008.7
20260506143006 7 31 4.8 8.0 0.18 1.04 0.74 89 1008.5
20260506142524 7 31 3.2 6.4 0.18 1.12 0.74 88 1008.7
20260506142505 7 31 3.2 6.4 0.18 1.04 0.74 89 1008.6
20260506142021 7 0 1.6 6.4 0.18 1.09 0.71 88 1008.8
20260506141534 7 31 3.2 6.4 0.18 1.09 0.71 88 1008.7
20260506141506 7 15 4.8 4.8 0.18 1.04 0.69 89 1008.6
20260506141023 7 21 1.6 6.4 0.15 1.07 0.69 88 1008.7
20260506141006 7 21 3.2 6.4 0.15 1.04 0.69 88 1008.5
20260506140519 7 0 1.6 8.0 0.15 1.04 0.66 88 1008.7
20260506140034 7 343 1.6 8.0 0.15 1.04 0.66 88 1008.6
20260506140005 7 13 3.2 8.0 0.15 0.89 0.66 89 1008.5
20260506135524 7 1 3.2 9.7 0.15 1.02 0.64 88 1008.7
20260506135025 7 352 3.2 11.3 0.15 1.02 0.64 88 1008.6
20260506134538 7 356 6.4 12.9 0.15 0.99 0.61 88 1008.6
20260506134502 7 344 6.4 12.9 0.15 0.89 0.61 89 1008.7
20260506134018 7 336 4.8 12.9 0.15 0.99 0.61 89 1008.8
20260506134002 7 303 6.4 12.9 0.15 0.89 0.61 89 1008.7
20260506133519 7 339 6.4 16.1 0.15 0.97 0.58 89 1008.8
20260506133503 7 349 8.0 16.1 0.18 0.89 0.58 89 1008.6
20260506133037 7 335 3.2 16.1 0.15 0.94 0.56 90 1008.8
20260506133003 7 350 3.2 16.1 0.18 0.89 0.56 90 1008.7
20260506132522 7 321 6.4 12.9 0.18 0.94 0.56 90 1008.9
20260506132502 7 341 6.4 12.9 0.20 0.89 0.56 91 1008.8
20260506132018 7 313 8.0 12.9 0.18 0.91 0.53 90 1009.1
20260506132003 7 333 8.0 12.9 0.18 0.89 0.53 91 1009.0
20260506131538 7 354 4.8 16.1 0.20 0.91 0.53 90 1008.9
20260506131503 7 26 6.4 14.5 0.20 0.89 0.53 91 1008.7
20260506131022 7 3 9.7 16.1 0.20 0.91 0.53 90 1008.7
20260506131003 7 14 12.9 14.5 0.23 0.89 0.53 91 1008.6
20260506130521 7 21 8.0 16.1 0.23 0.89 0.51 90 1008.7
20260506130503 7 11 8.0 16.1 0.23 0.89 0.51 91 1008.5
20260506130038 7 15 9.7 19.3 0.23 0.89 0.51 90 1008.9
20260506130006 7 14 11.3 17.7 0.23 0.66 0.51 91 1008.8
20260506125518 7 6 9.7 19.3 0.23 0.86 0.48 90 1008.6
20260506125505 7 351 11.3 19.3 0.23 0.66 0.48 91 1008.5
20260506125018 7 13 14.5 19.3 0.23 0.86 0.48 90 1008.8
20260506124532 7 16 12.9 19.3 0.23 0.84 0.46 90 1009.0
20260506124506 7 14 14.5 19.3 0.23 0.66 0.46 90 1008.8
20260506124022 7 21 14.5 19.3 0.23 0.84 0.46 90 1009.0
20260506123522 7 8 9.7 17.7 0.18 0.79 0.41 90 1009.2
20260506123504 8 11 8.0 17.7 0.18 0.66 0.41 90 1009.1
20260506123032 7 16 8.0 14.5 0.15 0.76 0.38 89 1009.3
20260506122522 7 358 6.4 14.5 0.15 0.76 0.38 89 1009.3
20260506122023 8 333 8.0 22.5 0.13 0.66 0.36 89 1009.2
20260506122018 7 330 6.4 22.5 0.13 0.74 0.36 89 1009.3
20260506121533 7 264 12.9 22.5 0.10 0.71 0.33 89 1009.2
20260506121026 7 56 4.8 20.9 0.10 0.69 0.30 88 1008.6
20260506121004 8 59 3.2 20.9 0.10 0.66 0.30 89 1008.6
20260506120518 7 299 11.3 20.9 0.08 0.66 0.28 88 1009.5
20260506120506 8 269 14.5 20.9 0.08 0.66 0.28 88 1009.4
20260506120040 8 37 6.4 16.1 0.08 0.66 0.28 88 1008.8
20260506120006 8 31 6.4 16.1 0.08 0.58 0.25 88 1008.7
20260506115518 8 276 8.0 16.1 0.05 0.64 0.25 88 1009.6
20260506115505 8 276 9.7 16.1 0.05 0.58 0.25 88 1009.6
20260506115021 8 346 8.0 17.7 0.05 0.58 0.25 88 1008.9
20260506114535 8 316 9.7 17.7 0.05 0.61 0.23 87 1009.3
20260506114505 8 337 9.7 17.7 0.05 0.58 0.23 88 1009.3
20260506114021 8 350 6.4 14.5 0.05 0.61 0.23 87 1009.2
20260506113520 8 359 8.0 16.1 0.05 0.61 0.23 87 1009.2
20260506113504 8 351 8.0 16.1 0.05 0.58 0.23 88 1009.1
20260506113035 8 31 8.0 16.1 0.05 0.61 0.23 87 1009.3
20260506113005 8 349 9.7 16.1 0.05 0.58 0.23 88 1009.2
20260506112521 8 4 8.0 19.3 0.05 0.61 0.23 87 1009.1
20260506112505 8 343 8.0 19.3 0.05 0.58 0.23 88 1009.1
20260506112023 8 331 12.9 19.3 0.08 0.61 0.23 87 1009.4
20260506112005 8 359 14.5 19.3 0.08 0.58 0.23 88 1009.4
20260506111535 8 360 9.7 19.3 0.08 0.61 0.23 88 1009.4
20260506111505 8 21 9.7 19.3 0.08 0.58 0.23 89 1009.3
20260506111019 8 337 14.5 19.3 0.05 0.58 0.20 89 1009.1
20260506110518 8 357 4.8 19.3 0.05 0.58 0.20 89 1009.2
20260506110041 8 6 14.5 22.5 0.05 0.58 0.20 89 1009.2
20260506110005 8 8 16.1 19.3 0.05 0.53 0.20 89 1009.1
20260506105522 8 21 12.9 22.5 0.05 0.58 0.20 88 1009.1
20260506105505 8 26 11.3 20.9 0.05 0.53 0.20 89 1008.9
20260506105019 8 1 16.1 22.5 0.05 0.58 0.20 88 1009.2
20260506105005 8 3 17.7 20.9 0.05 0.53 0.20 88 1009.0
20260506104536 8 4 12.9 27.4 0.03 0.56 0.18 87 1009.2
20260506104504 8 16 14.5 24.1 0.03 0.53 0.18 88 1009.1
20260506104023 8 21 16.1 29.0 0.03 0.56 0.18 87 1009.1
20260506104004 9 354 17.7 29.0 0.03 0.53 0.18 88 1009.0
20260506103519 9 4 20.9 29.0 0.05 0.56 0.18 87 1008.7
20260506103504 9 359 20.9 29.0 0.05 0.53 0.18 88 1008.6
20260506103036 9 11 19.3 27.4 0.05 0.56 0.18 88 1008.7
20260506103005 10 11 20.9 27.4 0.05 0.53 0.18 89 1008.7
20260506102519 10 7 19.3 25.7 0.05 0.56 0.18 89 1008.7
20260506102019 10 359 11.3 19.3 0.03 0.53 0.15 90 1008.7
20260506102005 10 6 11.3 19.3 0.03 0.53 0.15 90 1008.6
20260506101535 10 340 11.3 17.7 0.05 0.53 0.15 90 1008.7
20260506101502 10 349 11.3 17.7 0.05 0.53 0.15 90 1008.6
20260506101024 10 3 9.7 20.9 0.13 0.53 0.15 90 1008.5
20260506100959 10 340 11.3 19.3 0.13 0.53 0.15 90 1008.4
20260506100518 10 323 8.0 20.9 0.13 0.53 0.15 90 1008.6
20260506100500 10 316 9.7 19.3 0.13 0.53 0.15 90 1008.5
20260506100037 10 339 4.8 12.9 0.13 0.53 0.15 90 1008.6
20260506095957 10 359 6.4 12.9 0.13 0.41 0.15 91 1008.4
20260506095519 10 346 4.8 12.9 0.13 0.53 0.15 90 1008.4
20260506095455 10 332 6.4 12.9 0.13 0.41 0.15 91 1008.2
20260506095019 10 4 4.8 16.1 0.13 0.53 0.15 90 1008.5
20260506094954 10 352 4.8 14.5 0.13 0.41 0.15 90 1008.4
20260506094539 10 353 4.8 20.9 0.13 0.53 0.15 89 1008.4
20260506094019 10 349 11.3 20.9 0.13 0.53 0.15 89 1008.6
20260506093521 10 61 11.3 20.9 0.10 0.51 0.13 89 1007.9
20260506093455 10 46 9.7 17.7 0.10 0.41 0.13 89 1007.9
20260506093037 10 321 9.7 19.3 0.10 0.51 0.13 88 1008.9
20260506092953 10 345 11.3 19.3 0.10 0.41 0.13 88 1008.7
20260506092518 10 31 16.1 19.3 0.10 0.51 0.13 87 1008.4
20260506092022 11 31 14.5 19.3 0.10 0.51 0.13 87 1008.6
20260506091947 11 35 14.5 17.7 0.10 0.41 0.13 88 1008.5
20260506091536 11 31 11.3 29.0 0.08 0.48 0.10 87 1009.0
20260506091025 11 297 9.7 29.0 0.00 0.41 0.03 87 1009.8
20260506090948 11 288 11.3 29.0 0.00 0.41 0.03 87 1009.8
20260506090522 11 21 22.5 29.0 0.00 0.41 0.03 85 1008.1
20260506090443 11 21 24.1 29.0 0.00 0.41 0.03 85 1008.0
20260506090036 11 16 16.1 29.0 0.00 0.41 0.03 84 1008.0
20260506085940 11 21 14.5 29.0 0.00 0.41 0.03 85 1008.0
20260506085522 11 329 16.1 27.4 0.00 0.41 0.03 85 1008.8
20260506085023 11 2 17.7 27.4 0.00 0.41 0.03 84 1008.5
20260506084929 11 352 22.5 27.4 0.00 0.41 0.03 84 1008.2
20260506084543 11 12 14.5 25.7 0.00 0.41 0.03 84 1008.1
20260506084431 12 8 14.5 25.7 0.00 0.41 0.03 85 1008.3
20260506084023 11 312 14.5 27.4 0.00 0.41 0.03 84 1008.9
20260506083930 12 347 16.1 27.4 0.00 0.41 0.03 84 1008.7
20260506083525 12 354 17.7 27.4 0.00 0.41 0.03 84 1008.5
20260506083429 12 2 17.7 27.4 0.00 0.41 0.03 84 1008.5
20260506083034 12 352 16.1 25.7 0.00 0.41 0.03 84 1008.6
20260506082930 12 352 17.7 25.7 0.00 0.41 0.03 84 1008.5
20260506082525 12 1 19.3 25.7 0.00 0.41 0.03 83 1008.2
20260506082429 12 21 19.3 25.7 0.00 0.41 0.03 84 1008.1
20260506082022 12 1 14.5 22.5 0.00 0.41 0.03 83 1008.8
20260506081541 12 6 16.1 22.5 0.00 0.41 0.03 83 1008.3
20260506081433 12 21 16.1 22.5 0.00 0.41 0.03 84 1008.1
20260506081022 12 10 16.1 22.5 0.00 0.41 0.03 84 1008.4
20260506080932 12 14 17.7 22.5 0.00 0.41 0.03 85 1008.4
20260506080522 12 349 14.5 25.7 0.00 0.41 0.03 84 1008.3
20260506080433 12 354 17.7 24.1 0.00 0.41 0.03 85 1008.2
20260506073526 12 293 6.4 11.3 0.00 0.41 0.03 91 1008.6
20260506073432 12 316 4.8 11.3 0.00 0.41 0.03 91 1008.2
20260506073035 12 47 3.2 6.4 0.00 0.41 0.03 91 1008.1
20260506072929 12 63 4.8 6.4 0.00 0.41 0.03 91 1008.1
20260506072523 12 0 0.0 9.7 0.00 0.41 0.03 92 1008.4
20260506072430 12 31 1.6 6.4 0.00 0.41 0.03 92 1008.4
20260506072023 12 273 3.2 9.7 0.00 0.41 0.03 92 1008.7
20260506071930 12 273 4.8 6.4 0.00 0.41 0.03 93 1008.9
20260506071535 11 278 1.6 6.4 0.00 0.41 0.03 92 1008.3
20260506071429 12 320 1.6 6.4 0.00 0.41 0.03 92 1007.9
20260506071022 11 0 0.0 8.0 0.00 0.41 0.03 92 1008.0
20260506070930 11 338 0.0 8.0 0.00 0.41 0.03 92 1007.9
20260506070525 11 355 3.2 8.0 0.00 0.41 0.03 92 1008.1
20260506070429 11 8 3.2 8.0 0.00 0.41 0.03 92 1008.0
20260506062429 13 17 3.2 6.4 0.00 0.41 0.03 86 1008.0
20260506062023 12 358 1.6 9.7 0.00 0.41 0.03 87 1008.1
20260506061930 13 10 1.6 11.3 0.00 0.41 0.03 87 1008.1
20260506061536 12 21 4.8 12.9 0.00 0.41 0.03 88 1008.1
20260506061430 12 353 4.8 11.3 0.00 0.41 0.03 88 1007.9
20260506061024 12 338 6.4 16.1 0.00 0.41 0.03 89 1008.1
20260506060929 12 350 6.4 16.1 0.00 0.41 0.03 89 1008.0
20260506060522 12 324 8.0 16.1 0.00 0.41 0.03 89 1007.9
20260506060429 12 337 9.7 16.1 0.00 0.41 0.03 90 1007.8
20260506051025 13 0 0.0 3.2 0.03 0.41 0.03 87 1008.4
20260506050927 13 221 0.0 3.2 0.03 0.41 0.03 87 1008.3
20260506050522 13 0 0.0 3.2 0.03 0.41 0.03 86 1008.5
20260506045022 13 221 0.0 14.5 0.03 0.41 0.03 82 1008.3
20260506044910 14 221 1.6 12.9 0.03 0.38 0.03 82 1008.1
20260506044544 14 221 4.8 14.5 0.03 0.41 0.03 81 1008.2
20260506044022 14 230 6.4 17.7 0.03 0.41 0.03 80 1008.5
20260506043911 14 233 6.4 14.5 0.03 0.38 0.03 81 1008.3
20260506043522 14 212 9.7 17.7 0.00 0.38 0.00 79 1008.6
20260506043405 14 210 9.7 14.5 0.00 0.38 0.00 80 1008.4
20260506043035 14 209 6.4 17.7 0.00 0.38 0.00 80 1008.3
20260506042904 14 195 6.4 16.1 0.00 0.38 0.00 81 1008.2
20260506042523 14 207 8.0 17.7 0.00 0.38 0.00 82 1008.3
20260506042403 14 199 9.7 16.1 0.00 0.38 0.00 83 1008.3
20260506042022 14 201 9.7 17.7 0.00 0.38 0.00 83 1007.8
20260506041552 14 195 8.0 16.1 0.00 0.38 0.00 86 1007.7
20260506041404 14 200 6.4 14.5 0.00 0.38 0.00 87 1007.8
20260506041022 14 208 6.4 11.3 0.00 0.38 0.00 87 1007.9
20260506040903 15 198 8.0 9.7 0.00 0.38 0.00 88 1007.8
20260506040522 14 203 4.8 9.7 0.00 0.38 0.00 87 1007.6
20260506040403 14 210 4.8 9.7 0.00 0.38 0.00 88 1007.5
20260506040039 14 179 4.8 9.7 0.00 0.38 0.00 88 1007.5
20260506035902 15 193 6.4 9.7 0.00 0.38 0.38 88 1007.4
20260506035522 15 220 4.8 6.4 0.00 0.38 0.38 87 1007.9
20260506035406 15 214 4.8 6.4 0.00 0.38 0.38 88 1007.8
20260506035022 15 231 0.0 4.8 0.00 0.38 0.38 86 1007.6
20260506034904 15 151 0.0 4.8 0.00 0.38 0.38 86 1007.4
20260506034548 15 0 0.0 6.4 0.00 0.38 0.38 85 1007.4
20260506034404 15 151 1.6 4.8 0.00 0.38 0.38 84 1007.4
20260506034028 15 141 3.2 11.3 0.00 0.38 0.38 82 1007.5
20260506033900 15 112 3.2 11.3 0.00 0.38 0.38 83 1007.2
20260506033529 15 195 3.2 11.3 0.00 0.38 0.38 83 1007.8
20260506033354 15 214 4.8 11.3 0.00 0.38 0.38 84 1007.8
20260506033038 15 224 4.8 11.3 0.00 0.38 0.38 83 1007.9
20260506032849 16 237 4.8 9.7 0.00 0.38 0.38 84 1007.6
20260506032522 15 204 1.6 9.7 0.00 0.38 0.38 83 1007.5
20260506032023 16 214 3.2 9.7 0.00 0.38 0.38 83 1007.6
20260506031849 16 233 3.2 4.8 0.00 0.38 0.38 84 1007.5
20260506031535 16 244 1.6 9.7 0.00 0.38 0.38 81 1007.7
20260506031349 16 244 3.2 9.7 0.00 0.38 0.38 81 1007.6
20260506031024 16 244 1.6 9.7 0.00 0.38 0.38 80 1007.6
20260506030848 16 244 4.8 9.7 0.00 0.38 0.38 82 1007.5
20260506030521 16 228 4.8 11.3 0.00 0.38 0.38 81 1007.8
20260506030041 15 276 4.8 11.3 0.00 0.38 0.38 85 1007.5
20260506025846 15 281 6.4 11.3 0.00 0.38 0.38 88 1007.3
20260506025526 15 325 4.8 8.0 0.00 0.38 0.38 88 1007.2
20260506025345 15 1 4.8 8.0 0.00 0.38 0.38 88 1007.0
20260506025022 15 0 0.0 3.2 0.00 0.38 0.38 89 1007.0
20260506024844 15 21 0.0 3.2 0.00 0.38 0.38 89 1007.0
20260506024540 15 0 0.0 3.2 0.00 0.38 0.38 88 1007.2
20260506024022 15 21 0.0 6.4 0.00 0.38 0.38 87 1007.2
20260506023838 15 21 1.6 6.4 0.00 0.38 0.38 88 1007.0
20260506023526 15 21 3.2 6.4 0.00 0.38 0.38 85 1007.0
20260506023335 15 21 4.8 6.4 0.00 0.38 0.38 86 1006.9
20260506023037 15 21 1.6 4.8 0.00 0.38 0.38 85 1006.8
20260506022830 15 299 1.6 4.8 0.00 0.38 0.38 86 1006.8
20260506022522 15 323 1.6 8.0 0.00 0.38 0.38 84 1006.9
20260506022330 15 335 1.6 9.7 0.00 0.38 0.38 84 1006.7
20260506022022 15 332 1.6 12.9 0.00 0.38 0.38 83 1006.6
20260506021536 15 195 8.0 12.9 0.00 0.38 0.38 82 1006.6
20260506021328 15 170 11.3 12.9 0.00 0.38 0.38 81 1006.5
20260506021021 16 156 6.4 11.3 0.00 0.38 0.38 80 1006.5
20260506020526 16 0 0.0 9.7 0.00 0.38 0.38 80 1006.2
20260506020330 17 231 1.6 9.7 0.00 0.38 0.38 80 1006.1
20260506020037 16 224 6.4 9.7 0.00 0.38 0.38 79 1006.4
20260506015830 17 198 6.4 9.7 0.00 0.38 0.38 80 1006.3
20260506015523 17 228 4.8 9.7 0.00 0.38 0.38 79 1006.4
20260506015330 17 210 6.4 9.7 0.00 0.38 0.38 79 1006.3
20260506015023 17 243 6.4 9.7 0.00 0.38 0.38 78 1006.4
20260506014829 17 232 6.4 9.7 0.00 0.38 0.38 78 1006.4
20260506014536 17 236 3.2 6.4 0.00 0.38 0.38 76 1006.3
20260506014331 17 239 3.2 4.8 0.00 0.38 0.38 76 1006.0
20260506014021 17 239 1.6 11.3 0.00 0.38 0.38 75 1006.0
20260506013831 18 239 1.6 9.7 0.00 0.38 0.38 75 1005.9
20260506013522 18 239 3.2 11.3 0.00 0.38 0.38 74 1006.2
20260506013328 18 239 4.8 9.7 0.00 0.38 0.38 74 1006.1
20260506013051 18 235 3.2 11.3 0.00 0.38 0.38 74 1006.3
20260506012829 18 243 4.8 14.5 0.00 0.38 0.38 75 1006.1
20260506012523 18 276 4.8 16.1 0.00 0.38 0.38 74 1006.3
20260506012329 18 243 6.4 14.5 0.00 0.38 0.38 75 1006.1
20260506012022 17 246 6.4 16.1 0.00 0.38 0.38 75 1006.2
20260506011543 17 272 6.4 16.1 0.00 0.38 0.38 77 1006.3
20260506011329 17 257 8.0 14.5 0.00 0.38 0.38 78 1006.2
20260506011022 17 258 4.8 14.5 0.00 0.38 0.38 79 1006.4
20260506010522 16 246 6.4 11.3 0.00 0.38 0.38 82 1006.5
20260506010328 16 192 3.2 9.7 0.00 0.38 0.38 83 1006.4
20260506010037 16 280 1.6 9.7 0.00 0.38 0.38 84 1006.4
20260506005524 15 280 1.6 11.3 0.00 0.38 0.38 83 1006.2
20260506005331 16 281 4.8 11.3 0.00 0.38 0.38 82 1005.8
20260506005022 15 26 6.4 11.3 0.00 0.38 0.38 81 1005.1
20260506004833 16 69 8.0 11.3 0.00 0.38 0.38 83 1004.7
20260506004536 15 103 3.2 8.0 0.00 0.38 0.38 83 1005.2
20260506004331 15 82 0.0 3.2 0.00 0.38 0.38 82 1005.4
20260506004022 16 0 0.0 3.2 0.00 0.38 0.38 81 1005.7
20260506003523 16 0 0.0 6.4 0.00 0.38 0.38 82 1005.7
20260506003330 16 26 1.6 4.8 0.00 0.38 0.38 83 1005.5
20260506003036 16 26 1.6 6.4 0.00 0.38 0.38 83 1005.4
20260506002829 16 26 3.2 4.8 0.00 0.38 0.38 84 1005.2
20260506002521 15 14 3.2 6.4 0.00 0.38 0.38 83 1005.1
20260506002330 15 31 3.2 4.8 0.00 0.38 0.38 84 1005.0
20260506002022 15 54 1.6 4.8 0.00 0.38 0.38 83 1005.1
20260506001829 15 343 0.0 3.2 0.00 0.38 0.38 84 1005.1
20260506001535 15 0 0.0 6.4 0.00 0.38 0.38 81 1005.3
20260506001023 16 0 0.0 8.0 0.00 0.38 0.38 76 1005.3
20260506000829 17 230 1.6 8.0 0.00 0.38 0.38 75 1005.2
20260506000523 17 246 4.8 9.7 0.00 0.38 0.38 76 1005.3
20260506000330 18 231 4.8 9.7 0.00 0.38 0.38 76 1005.2
20260506000032 17 217 4.8 11.3 0.00 0.38 0.38 76 1005.4
20260505235829 18 261 6.4 9.7 0.00 0.38 0.38 76 1005.3
20260505235522 17 236 6.4 11.3 0.00 0.38 0.38 76 1005.3
20260505235022 17 223 4.8 9.7 0.00 0.38 0.38 75 1005.1
20260505234829 18 233 6.4 9.7 0.00 0.38 0.38 75 1005.0
20260505234538 18 223 4.8 11.3 0.00 0.38 0.38 74 1004.9
20260505234329 18 245 6.4 9.7 0.00 0.38 0.38 75 1004.8
20260505234023 18 243 6.4 11.3 0.00 0.38 0.38 74 1004.8
20260505233830 18 229 8.0 9.7 0.00 0.38 0.38 74 1004.7
20260505233525 18 233 6.4 12.9 0.00 0.38 0.38 73 1004.8
20260505233036 18 213 6.4 12.9 0.00 0.38 0.38 73 1004.8
20260505232832 18 234 6.4 12.9 0.00 0.38 0.38 73 1004.8
20260505232522 18 206 6.4 14.5 0.00 0.38 0.38 72 1004.9
20260505232331 18 207 9.7 14.5 0.00 0.38 0.38 73 1004.9
20260505232023 18 226 8.0 17.7 0.00 0.38 0.38 72 1005.0